Regional Weather Roundup
Issued by NWS Kansas City/Pleasant Hill, MO

Home | Current Version | Previous Version | Graphics & Text | Print | Product List | Glossary Off
Versions: 1 2 3 4 5 6 7 8 9 10 11 12 13 14 15 16 17 18 19 20 21 22 23 24 25 26 27 28 29 30 31 32 33 34 35 36 37 38 39 40 41 42 43 44 45 46 47 48 49

638
ASUS43 KEAX 071210
RWREAX

WEATHER ROUNDUP FOR EASTERN KANSAS AND NORTHWEST MISSOURI
NATIONAL WEATHER SERVICE KANSAS CITY/PLEASANT HILL MO
600 AM CST SUN FEB 07 2016

KSZ040-057-103>105-MOZ028-029-037-043-071300-
...KANSAS CITY METROPOLITAN AREA...

CITY           SKY/WX    TMP DP  RH WIND       PRES   REMARKS
K.C. INTL      CLOUDY    38  27  64 W10       29.99R WCI  31
6HR MIN TEMP:  37; 6HR MAX TEMP:  40;

K.C. DOWNTOWN  MOCLDY    41  26  55 SW9       29.99S
6HR MIN TEMP:  40; 6HR MAX TEMP:  44;

LEES SUMMIT    PTCLDY    40  26  57 SW16      29.98F WCI  31
6HR MIN TEMP:  38; 6HR MAX TEMP:  40;

OLATHE - IXD   CLOUDY    37  27  67 SW8       30.01R WCI  31
6HR MIN TEMP:  36; 6HR MAX TEMP:  40;

OLATHE - OJC   PTCLDY    37  26  64 SW10      30.00S WCI  30
6HR MIN TEMP:  35; 6HR MAX TEMP:  39;

LAWRENCE       CLOUDY    38  26  62 W9        30.01R WCI  31

$$

MOZ001>008-011>017-020>025-030>033-038>040-044>046-053-054-071300-
...NORTHERN AND CENTRAL MISSOURI...

CITY           SKY/WX    TMP DP  RH WIND       PRES   REMARKS
ST. JOSEPH     CLOUDY    36  27  69 SW5       29.99R WCI  32
6HR MIN TEMP:  34; 6HR MAX TEMP:  39;

MOSBY          CLOUDY    39  28  65 W8        29.98R WCI  34
WARRENSBURG    PTCLDY    37  28  70 SW14      29.99F WCI  29
WHITEMAN AFB   CLOUDY    37  28  70 SW16      29.98S WCI  28
CLINTON          N/A     41  30  65 SW14      30.03S WCI  33
SEDALIA        PTCLDY    40  27  59 SW17      30.00F WCI  31
6HR MIN TEMP:  39; 6HR MAX TEMP:  41;

WARSAW         NOT AVBL
CHILLICOTHE      N/A     37  27  67 SW5       29.96S WCI  33
6HR MIN TEMP:  36; 6HR MAX TEMP:  39;

KIRKSVILLE     PTCLDY    38  26  62 SW13      29.92F WCI  30
6HR MIN TEMP:  38; 6HR MAX TEMP:  39;


$$

MOZ041-047>049-056>058-063>065-088>090-097-071300-
...EASTERN AND SOUTHERN MISSOURI...

CITY           SKY/WX    TMP DP  RH WIND       PRES   REMARKS
ST. LOUIS INTL MOCLDY    42  24  49 SW14      30.04F WCI  35
6HR MIN TEMP:  42; 6HR MAX TEMP:  44;

SPIRIT OF STL  CLEAR     42  26  53 SW10G18   30.04F
COLUMBIA       CLEAR     37  28  70 SW15      30.00F WCI  28
JEFFERSON CITY CLEAR     38  27  64 SE6       30.04F WCI  33
ROLLA          CLEAR     35  26  69 SW13      30.04F WCI  26
OSAGE BEACH    CLEAR     39  25  56 S9        30.05F WCI  33
SPRINGFIELD    CLEAR     32  26  78 S10       30.08F WCI  24
BRANSON        CLEAR     39  28  65 SW7       30.12S WCI  34
JOPLIN         CLEAR     40  29  64 SW16G24   30.10R WCI  31
WEST PLAINS    CLEAR     36  18  48 SW8       30.12F WCI  30

$$

IAZ060-094-KSZ022-034>040-054-083-096-NEZ052-066-093-071300-
...KANSAS...SOUTHEAST NEBRASKA AND IOWA...

CITY           SKY/WX    TMP DP  RH WIND       PRES   REMARKS
TOPEKA         CLOUDY    40  25  55 W9        30.02R WCI  34
6HR MIN TEMP:  40; 6HR MAX TEMP:  42;

MANHATTAN      PTCLDY    36  27  69 CALM      30.04R
EMPORIA        CLOUDY    37  25  61 W13       30.04R WCI  29
CHANUTE        CLOUDY    35  27  72 SW9       30.07R WCI  28
WICHITA        CLOUDY    31  24  75 W5        30.08R WCI  26
OMAHA          CLOUDY    39  26  59 W14       29.93F WCI  31
LINCOLN        CLOUDY    36  25  64 NW6       30.00R WCI  31
FALLS CITY     CLOUDY    35  27  72 W14       29.98R WCI  26
LAMONI         CLOUDY    36  27  69 W17       29.91R WCI  26
DES MOINES     CLOUDY    36  27  69 W10       29.87R WCI  28

$$





USA.gov is the U.S. government's official web portal to all federal, state and local government web resources and services.